Location: Unspecified
(0.0000°N, 0.0000°E)
Time: 12:16:29
(UTC+02:00)

USA 116 - Visible Passes

Search period start: 24 August 2016 00:00
Search period end: 03 September 2016 00:00
Orbit: 405 x 834 km, 97.9° (Epoch: 18 November)

Date Brightness Start Highest point End Pass type
(mag) Time Alt. Az. Time Alt. Az. Time Alt. Az.
24 Aug 7.3 05:54:30 10° E 05:55:23 11° ENE 05:56:18 10° ENE visible
24 Aug 4.8 07:27:44 10° SSW 07:30:53 25° W 07:34:21 10° NW visible
25 Aug 6.7 06:06:30 10° ESE 06:09:11 17° ENE 06:12:03 10° NNE visible
26 Aug 6.0 06:19:34 10° SE 06:22:59 28° ENE 06:26:44 10° NNE visible
27 Aug 5.0 06:32:59 10° SSE 06:36:48 45° ENE 06:41:05 10° N visible
28 Aug 4.1 06:46:38 10° SSE 06:50:38 75° ENE 06:55:11 10° N visible
29 Aug 3.9 07:00:29 10° S 07:04:31 68° W 07:09:06 10° NNW visible
30 Aug 4.3 07:14:30 10° S 07:18:25 42° W 07:22:49 10° NNW visible
31 Aug 7.2 05:54:45 10° ESE 05:56:53 13° ENE 05:59:06 10° NE visible
31 Aug 4.9 07:28:46 10° SSW 07:32:21 27° W 07:36:18 10° NW visible
01 Sep 6.6 06:07:23 10° SE 06:10:40 21° ENE 06:14:14 10° NNE visible
02 Sep 5.9 06:20:34 10° SE 06:24:30 32° ENE 06:28:47 10° NNE visible
